Home   Weather   Funchal   Past weeks

Flag for Portugal Past Weather in Funchal, Madeira, Portugal — Yesterday and Last 2 Weeks

Now
63 °F

Passing clouds.


Feels Like: 63 °F
Forecast: 63 / 69 °F
Wind: 2 mph from North

Location: Aeroporto Da Madeira

Current Time: Apr 24, 2017 at 8:29:24 am

Latest Report: Apr 24, 2017 at 8:00 am


Visibility: N/A

Pressure: 30.04 "Hg

Humidity: 94%

Dew Point: 61 °F

Location of FunchalLocation

Past Weather in Funchal — Graph

°F

Funchal Temperature Yesterday

Maximum temperature yesterday: 70 °F (at 2:00 pm)
Minimum temperature yesterday: 63 °F (at 5:00 am)
Average temperature yesterday: 66 °F

High & Low Weather Summary for the Past Weeks

 TemperatureHumidityPressure
High75 °F (Apr 17, 3:30 pm)88% (Apr 11, 2:30 am)30.21 "Hg (Apr 11, 2:30 am)
Low57 °F (Apr 10, 2:30 am)38% (Apr 18, 4:00 am)29.83 "Hg (Apr 18, 4:30 am)
Average65 °F73%30.03 "Hg
* Reported Apr 9 7:00 am — Apr 24 7:30 am, Funchal, Weather by CustomWeather, © 2017

Note: Actual official high and low records may vary slightly from our data, if they occured in-between our weather recording intervals... More about our weather records

Advertising

Funchal Weather History for the Previous 24 Hours

Scroll right to see more
 ConditionsComfort  
Time TempWeatherWind HumidityBarometerVisibility
7:30 am
Mon, Apr 24
64 °FPartly cloudy.5 mph88%30.04 "HgN/A
7:00 am64 °FPassing clouds.5 mph88%30.04 "HgN/A
6:30 am64 °FPassing clouds.3 mph88%30.04 "HgN/A
6:00 am64 °FPassing clouds.9 mph88%30.04 "Hg5 mi
5:30 am66 °FPassing clouds.2 mph83%30.04 "HgN/A
4:30 am66 °FPassing clouds.2 mph83%30.04 "HgN/A
4:00 am66 °FPassing clouds.No wind78%30.07 "HgN/A
3:30 am66 °FPassing clouds.No wind78%30.07 "HgN/A
3:00 am66 °FPassing clouds.No wind78%30.07 "HgN/A
2:30 am64 °FPassing clouds.3 mph83%30.07 "HgN/A
2:00 am64 °FPassing clouds.5 mph78%30.07 "HgN/A
1:30 am64 °FPassing clouds.3 mph78%30.09 "HgN/A
1:00 am64 °FPassing clouds.5 mph78%30.09 "HgN/A
12:30 am66 °FPassing clouds.2 mph78%30.09 "HgN/A
12:00 am66 °FPassing clouds.3 mph73%30.09 "HgN/A
11:30 pm
Sun, Apr 23
64 °FPassing clouds.5 mph78%30.09 "HgN/A
11:00 pm64 °FPassing clouds.3 mph78%30.09 "HgN/A
10:30 pm66 °FPassing clouds.5 mph78%30.09 "HgN/A
9:30 pm68 °FScattered clouds.No wind78%30.07 "HgN/A
9:00 pm68 °FScattered clouds.1 mph78%30.07 "HgN/A
8:30 pm68 °FScattered clouds.3 mph78%30.07 "HgN/A
8:00 pm68 °FScattered clouds.5 mph78%30.07 "HgN/A
7:30 pm68 °FScattered clouds.3 mph78%30.07 "HgN/A
7:00 pm68 °FScattered clouds.3 mph78%30.07 "HgN/A
6:30 pm68 °FScattered clouds.3 mph78%30.04 "HgN/A
6:00 pm68 °FScattered clouds.3 mph78%30.04 "HgN/A
5:30 pm68 °FScattered clouds.6 mph78%30.07 "HgN/A
5:00 pm70 °FScattered clouds.6 mph73%30.07 "HgN/A
4:30 pm70 °FScattered clouds.6 mph73%30.07 "HgN/A
4:00 pm70 °FScattered clouds.5 mph73%30.07 "HgN/A
3:30 pm68 °FScattered clouds.5 mph78%30.07 "HgN/A
3:00 pm68 °FScattered clouds.5 mph78%30.07 "HgN/A
2:00 pm70 °FPartly sunny.5 mph73%30.09 "HgN/A
1:00 pm68 °FPartly sunny.5 mph78%30.09 "HgN/A
12:30 pm68 °FPartly sunny.6 mph78%30.09 "HgN/A
12:00 pm66 °FPartly sunny.5 mph83%30.09 "HgN/A
11:30 am68 °FPartly sunny.6 mph78%30.09 "HgN/A
11:00 am68 °FPartly sunny.6 mph78%30.09 "HgN/A
10:30 am66 °FPartly sunny.5 mph78%30.09 "HgN/A
10:00 am66 °FScattered clouds.5 mph78%30.09 "HgN/A
9:30 am66 °FScattered clouds.2 mph78%30.09 "HgN/A
9:00 am64 °FPartly sunny.3 mph83%30.09 "HgN/A
8:30 am63 °FPartly sunny.5 mph83%30.07 "HgN/A
8:00 am63 °FPassing clouds.5 mph83%30.07 "HgN/A
Weather by CustomWeather, © 2017

See weather overviewHow to use our weather pages